Regional Weather Roundup
Issued by NWS Albany, NY

Home | Current Version | Previous Version | Graphics & Text | Print | Product List | Glossary Off
Versions: 1 2 3 4 5 6 7 8 9 10 11 12 13 14 15 16 17 18 19 20 21 22 23 24 25 26 27 28 29 30 31 32 33 34 35 36 37 38 39 40 41 42 43 44 45 46 47 48 49 50

000
ASUS41 KALY 211710
RWRALY

NEW YORK STATE HOURLY WEATHER ROUNDUP
NATIONAL WEATHER SERVICE ALBANY NY
100 PM EDT SUN SEP 21 2014

NOTE: "FAIR" INDICATES FEW OR NO CLOUDS BELOW 12,000 FEET WITH NO
SIGNIFICANT WEATHER AND/OR NO OBSTRUCTIONS TO VISIBILITY.

NYZ032-033-038>043-046>054-057>066-NYZ062>081-211800-
EAST


CITY           SKY/WX    TMP DP  RH WIND       PRES   REMARKS
ALBANY         PTSUNNY   77  60  55 S16G23    29.76F
GLENS FALLS    SUNNY     77  62  59 S10       29.74F
POUGHKEEPSIE   CLOUDY    75  65  70 S3        29.77F
NEWBURGH       PTSUNNY   73  68  83 E9        29.80F
MONTGOMERY     PTSUNNY   76  63  64 S6        29.78F
WHITE PLAINS   CLOUDY    70  67  90 NW6       29.79F FOG
ISLIP          CLOUDY    75  68  78 S7        29.76F
NEW YORK CITY  CLOUDY    73  67  81 NE6       29.78F
CENTRAL PARK   CLOUDY    71  67  87 VRB5      29.81F FOG
$$

NYZ005>009-017-018-044>046-055-056-211800-
CENTRAL


CITY           SKY/WX    TMP DP  RH WIND       PRES   REMARKS
FULTON         LGT RAIN  71  64  78 S10       29.63F
SYRACUSE       LGT RAIN  73  63  70 S9        29.64F
ROME           LGT RAIN  69  64  84 SE5       29.71F
ELMIRA         PTSUNNY   79  64  60 S17G25    29.67F
BINGHAMTON     PTSUNNY   72  61  68 S10G21    29.74F
MONTICELLO     MOSUNNY   73  57  56 MISG      29.82F
$$

NYZ026>034-041>043-211800-
NORTH


CITY           SKY/WX    TMP DP  RH WIND       PRES   REMARKS
WATERTOWN      LGT RAIN  69  62  78 S12       29.59F
FORT DRUM      NOT AVBL
MASSENA        LGT RAIN  70  66  87 SE3       29.61F
SARANAC LAKE   PTSUNNY   71  57  61 S21G28    29.69F
PLATTSBURGH    MOSUNNY   75  61  61 S10       29.66F
$$

NYZ001>004-010>016-019>021-211800-
WEST


CITY           SKY/WX    TMP DP  RH WIND       PRES   REMARKS
NIAGARA FALLS  MOSUNNY   75  61  61 SW26G38   29.57F
BUFFALO        MOSUNNY   73  63  70 SW25G37   29.59F
DUNKIRK        PTSUNNY   72  63  73 SW20G32   29.64S
JAMESTOWN      PTSUNNY   63  57  82 W15G24    29.69R
WELLSVILLE     PTSUNNY   69  63  81 SW13G20   29.72F
ROCHESTER      PTSUNNY   78  65  63 SW22G32   29.59F
PENN YAN       PTSUNNY   73  64  73 S13       29.66F
$$

             KEY
       WCI = WIND CHILL INDEX
       VSB = VISIBILITY
       HX  = HEAT INDEX
$$


USA.gov is the U.S. government's official web portal to all federal, state and local government web resources and services.